Tracking 19795 objects as of 20-Jul-2019
HD Live streaming from Space Station
objects crossing your sky now

NOAA 16 DEB

Track NOAA 16 DEB now!
10-day predictions


NORAD ID: 41048
Int'l Code: 2000-055F
Perigee: 755.7 km
Apogee: 836.6 km
Inclination: 99.0 °
Period: 100.6 minutes
Semi major axis: 7167 km
RCS: Unknown
Launch date: September 21, 2000
Source: United States (US)
Launch site: AIR FORCE WESTERN TEST RANGE (AFWTR)

Note: This is SATELLITE DEBRIS
aabbcc
Your satellite tracking list
Your tracking list is empty




NASA's NSSDC Master Catalog

Two Line Element Set (TLE):
1 41048U 00055F   19200.90456109 -.00014129 +00000-0 -52918-2 0  9999
2 41048 098.9880 338.0581 0056413 089.2422 271.5222 14.30806996189482
Source of the keplerian elements: AFSPC